Вернуться в каталог

OPS 0856 DEB

LostPO
NORAD 23832·DEBRIS·🇺🇸 United States

Запущен Aug 19, 1966 с Vandenberg Space Force Base

Loading…

Ближайшие Пролёты (ближайшие 24 часа)

TLE

УстаревшееSource: Space-Track

Эпоха: Sep 12, 2021, 19:57 UTC

1 23832U 66077H   21255.83172346  .00000053  00000-0  41660-2 0  9990
2 23832  89.5433 202.1111 1870400 313.7820  31.2866  8.70557285851630

Отслеживайте OPS 0856 DEB в реальном времени с AllMySat

Download on the App Store